GFSWCAN_700_rhum_201.txt.gz
RH
10 11 12 12 13 13 12 12 11 10 10 10 10 10 9 8 8 15 28 70 94 92 20 47 57 87 84 90 100 90 90 81 54 57 99 98 94 91 85 72 67 48 47 53 88 78 73 25 41 43 35 37 37 33
10 11 12 13 13 14 14 13 13 12 12 13 12 11 10 9 25 88 84 54 71 94 56 73 90 100 85 86 100 98 92 98 92 80 83 94 95 96 76 98 77 66 58 52 51 41 30 29 27 33 38 40 39 35
12 13 13 14 15 15 15 15 14 14 15 15 14 12 9 21 55 69 90 82 61 76 78 71 51 53 59 73 87 99 81 70 86 72 66 92 100 95 94 96 96 72 68 58 51 42 43 39 34 34 33 44 44 41
15 16 16 16 17 17 18 18 18 19 19 17 14 15 68 99 95 95 88 77 78 92 100 62 49 33 53 75 60 64 72 85 95 96 98 99 100 98 86 86 90 95 95 93 85 54 44 44 43 42 45 45 46 48
18 19 18 19 20 20 21 20 22 23 20 14 17 84 89 86 82 85 74 60 66 89 84 71 46 39 67 70 68 74 69 79 94 92 90 66 52 100 92 98 46 36 67 94 90 79 69 48 38 36 40 43 52 53
22 22 22 22 23 26 26 27 27 21 20 64 76 68 70 68 66 69 71 49 49 68 99 97 72 72 53 45 42 43 85 79 88 75 96 98 85 80 100 100 37 36 39 46 69 98 97 80 51 44 50 52 57 57
25 26 26 28 31 32 34 31 21 14 11 11 14 25 30 37 53 61 68 49 68 89 100 97 77 52 41 28 27 30 43 78 60 57 59 45 77 93 87 88 44 47 38 40 46 93 91 77 74 60 54 54 56 62
30 30 32 37 39 38 30 19 13 13 15 33 50 55 58 61 56 37 34 49 50 79 97 99 96 72 52 58 60 53 66 79 72 66 68 65 65 99 100 66 19 18 22 38 56 82 91 95 86 91 56 51 58 65
36 39 45 47 44 32 20 16 16 20 21 54 59 66 60 41 29 42 48 44 63 92 100 98 98 90 92 87 89 95 99 98 92 89 61 97 96 94 53 30 23 19 16 14 17 48 92 98 88 89 84 67 67 74
49 56 82 68 34 22 19 18 23 23 51 55 72 70 44 50 64 52 37 35 47 60 96 53 72 71 90 99 96 98 96 97 97 96 99 100 79 44 46 52 49 45 52 47 37 21 54 57 94 97 84 73 71 97
63 82 100 40 24 21 20 22 29 45 56 75 74 58 47 42 31 35 75 100 97 98 97 93 97 97 98 97 93 97 94 95 96 91 98 94 71 40 41 42 41 44 52 53 56 29 23 36 40 71 78 93 97 97
80 86 40 25 24 26 32 41 38 60 83 88 93 82 57 32 69 100 96 97 97 96 95 95 92 96 90 91 98 97 97 92 88 84 98 96 50 51 61 52 48 61 72 63 58 49 74 38 62 96 98 97 97 96
64 31 34 46 60 62 58 42 59 86 86 83 80 62 46 48 75 97 97 95 96 95 88 81 79 86 79 94 98 95 96 96 94 89 87 56 54 68 68 70 77 79 88 76 76 47 95 93 88 97 99 97 97 98
68 58 33 30 38 52 46 58 81 92 96 82 59 50 44 44 71 92 97 98 94 90 79 83 86 96 86 92 96 97 96 93 91 89 78 64 66 64 73 77 83 94 78 98 95 51 82 89 90 99 98 98 98 97
27 23 20 28 48 62 78 85 94 90 72 56 60 50 40 43 55 79 96 97 93 86 94 89 82 84 91 96 96 96 95 89 86 78 65 68 85 84 87 94 85 89 98 43 38 59 73 49 93 98 98 97 96 95
26 19 24 48 57 85 98 80 54 44 48 52 53 41 44 69 87 96 95 92 95 96 95 97 98 97 97 97 98 98 98 98 98 96 95 95 95 95 94 94 95 96 97 95 92 90 91 97 97 96 95 96 93 95
37 31 37 55 83 92 55 46 38 39 55 54 55 85 99 98 99 94 92 96 97 97 97 98 98 97 96 96 96 96 97 96 96 95 96 95 96 96 97 96 97 97 97 97 97 96 96 96 96 96 96 95 93 82
55 54 63 90 85 47 37 33 40 64 76 92 100 98 98 98 94 86 92 98 97 98 98 98 98 96 96 96 96 98 96 97 96 96 95 95 96 97 98 98 98 97 97 97 97 97 96 96 96 95 94 82 58 39
75 62 70 73 47 45 40 43 79 99 98 99 98 98 99 98 89 93 96 98 98 98 99 97 97 97 98 97 96 99 97 97 98 97 97 98 98 98 97 97 97 97 96 96 96 95 95 91 85 69 52 31 16 12
72 71 79 50 40 38 42 54 89 100 98 99 98 100 100 100 100 98 98 98 99 98 96 96 98 99 99 96 98 99 98 99 99 97 98 97 98 97 96 96 94 95 95 96 95 87 75 58 35 20 15 14 14 14
72 84 62 40 32 43 50 54 73 98 98 98 98 96 100 100 100 100 100 99 97 91 95 98 99 99 100 100 99 99 99 98 97 95 96 95 95 93 95 94 87 72 52 39 30 23 20 19 18 18 18 18 18 19
82 63 45 37 40 49 54 60 61 88 98 98 98 97 97 98 99 97 93 83 94 99 98 98 100 99 99 98 98 97 97 98 96 95 95 96 95 93 77 48 34 30 29 28 29 29 27 26 24 25 26 28 29 29
66 55 42 42 44 51 52 56 49 58 94 98 98 96 98 97 98 82 84 98 98 98 98 96 97 98 91 94 98 95 95 97 96 94 93 84 68 52 41 39 38 38 36 34 32 33 35 36 35 33 30 28 28 32
57 55 42 42 44 49 54 53 52 47 57 96 98 97 97 97 97 96 97 95 97 98 99 98 98 98 98 97 95 95 88 73 64 56 51 51 51 48 46 42 42 45 46 45 42 36 31 28 29 33 36 38 42 47
63 45 45 51 48 54 54 41 46 58 53 74 97 98 97 98 95 96 97 100 100 100 99 99 99 99 98 96 97 95 93 94 77 64 52 49 56 64 63 59 51 42 36 34 32 33 38 42 40 30 30 35 45 52
50 49 54 52 54 63 74 59 45 52 72 74 95 98 98 98 97 97 97 98 98 98 98 98 98 98 97 98 97 96 96 95 92 84 78 68 54 46 42 39 36 35 37 41 45 48 49 39 31 35 40 43 48 59
48 52 54 63 68 82 90 87 77 78 84 69 87 98 98 97 97 97 98 99 99 99 99 98 98 98 95 84 70 60 55 51 50 47 43 41 41 41 42 43 45 47 51 52 56 60 62 54 51 58 69 76 77 78
55 60 67 75 88 96 98 97 96 94 85 72 68 58 65 88 92 97 98 99 99 100 100 100 98 87 73 65 58 50 44 40 38 37 36 36 36 42 48 52 53 55 60 66 69 72 74 77 77 77 77 76 79 80
70 72 78 85 94 98 98 99 100 88 76 66 59 46 46 73 96 97 98 98 99 99 99 98 92 76 70 68 62 55 51 50 49 46 42 39 39 48 56 61 64 71 77 81 84 83 85 86 85 84 84 85 86 86
81 84 86 89 94 96 97 97 89 76 69 60 50 63 84 91 95 97 98 98 98 98 98 98 95 84 77 76 77 74 68 64 62 59 52 48 54 62 66 68 78 86 87 87 87 90 93 92 90 87 88 87 87 77
92 90 86 89 90 95 98 98 97 89 84 84 91 98 95 94 98 100 100 100 100 100 98 97 96 95 94 91 88 86 83 79 74 67 57 54 59 66 66 72 85 88 90 90 92 94 93 91 91 92 92 86 62 63
93 90 87 83 73 95 96 99 99 98 98 98 97 96 98 97 98 98 98 96 96 97 96 95 94 92 91 89 87 84 83 82 80 73 64 57 61 68 69 82 90 92 92 93 96 95 94 95 96 95 81 59 74 75
81 80 62 55 82 98 96 94 100 100 99 98 97 97 98 98 99 96 97 94 92 92 94 93 89 88 88 88 86 84 83 80 79 76 69 61 65 72 80 92 94 95 97 98 98 97 98 98 95 74 64 77 76 77

GFSWCAN_700_rhum_204.txt.gz
RH
14 13 12 10 10 11 12 13 14 14 14 14 13 13 14 14 13 12 18 30 52 49 26 16 23 31 32 52 78 98 98 94 83 99 97 96 88 86 97 96 93 89 80 86 99 88 84 52 34 40 28 28 36 40
24 16 12 10 11 12 13 14 15 16 16 16 16 16 17 16 14 14 25 36 48 66 30 29 33 42 52 67 92 86 97 85 80 88 82 81 99 96 97 97 72 97 98 83 69 63 56 43 37 39 42 46 45 44
30 24 16 12 13 14 15 16 17 18 18 18 19 21 20 16 15 76 100 87 86 89 70 40 18 42 48 64 82 100 67 62 74 80 95 97 100 100 98 93 81 89 95 96 97 81 71 62 58 55 52 42 38 48
36 27 17 14 15 16 18 18 19 20 21 22 22 22 20 22 42 76 88 81 84 100 98 39 38 44 60 57 72 87 71 86 81 86 94 90 98 96 98 97 100 59 65 75 89 89 95 80 82 63 47 45 66 53
32 20 15 15 17 20 21 22 23 25 25 25 26 21 14 13 27 62 66 62 61 75 75 59 43 37 58 68 50 51 60 72 84 89 99 88 67 98 83 96 100 65 55 74 32 41 47 70 87 84 67 58 48 62
18 14 16 19 22 24 24 25 30 30 31 30 23 14 13 21 49 75 78 39 48 68 90 97 45 55 54 55 53 47 49 55 94 100 88 75 64 76 93 100 39 46 59 57 38 27 28 42 78 94 89 71 56 72
12 15 21 24 27 28 30 33 36 36 33 26 18 16 16 31 61 64 60 49 52 65 95 100 96 91 87 69 62 68 84 83 74 65 67 79 63 100 97 94 27 37 38 37 32 42 34 32 56 94 97 97 68 80
16 22 28 30 33 37 40 44 41 35 29 21 17 17 17 42 50 44 38 39 42 55 70 100 80 67 63 63 96 94 94 95 78 82 90 87 78 99 100 70 34 27 36 54 41 35 28 26 33 77 92 97 79 82
22 29 37 38 45 86 100 59 35 29 20 16 17 22 32 45 45 40 32 36 57 78 100 95 81 87 86 88 95 98 96 94 92 93 70 96 100 96 75 47 39 38 42 43 49 62 48 34 29 28 64 100 78 97
40 41 45 56 70 88 89 35 25 20 21 26 45 54 59 64 60 47 20 36 58 74 99 79 100 86 99 95 92 98 97 97 92 81 86 100 87 45 46 41 44 47 49 52 56 54 53 38 22 20 44 90 93 96
98 70 65 71 88 69 31 25 46 73 70 64 64 68 64 51 37 24 48 87 97 97 96 97 98 98 94 94 96 97 94 91 97 84 99 93 58 34 48 52 54 58 59 59 59 54 52 58 62 29 29 87 97 96
69 73 82 77 48 46 63 71 69 60 64 80 99 84 62 40 31 52 98 97 97 98 97 98 100 94 74 84 99 97 95 96 87 98 97 82 60 75 82 82 80 79 73 74 70 74 70 53 59 39 60 86 80 98
76 71 67 68 53 29 24 27 36 55 80 96 99 92 58 44 41 45 63 90 92 75 66 71 86 91 95 95 91 91 96 96 95 93 78 74 71 86 87 84 79 79 84 83 82 89 80 74 62 60 75 71 94 98
82 72 50 33 28 26 24 34 64 91 96 99 97 69 53 39 33 36 40 50 65 76 90 96 96 100 88 95 83 93 97 92 99 99 99 95 90 88 86 90 91 85 95 95 94 92 95 99 71 68 64 81 99 100
42 32 23 22 22 21 34 52 87 99 100 80 76 56 39 36 41 48 57 69 86 95 98 95 90 86 93 97 96 97 97 99 97 96 95 92 92 91 86 79 91 96 95 97 87 96 94 90 62 71 92 94 98 97
24 22 31 33 29 32 52 84 94 71 56 54 55 39 39 51 65 86 95 97 98 97 94 97 99 98 97 98 97 96 96 96 95 94 94 96 96 95 90 89 94 90 98 100 100 97 87 94 76 96 98 97 96 97
34 38 49 58 55 67 81 73 50 38 43 53 56 71 98 100 99 96 91 98 98 98 98 98 98 98 97 97 96 96 97 97 97 99 98 96 97 98 98 98 96 98 98 97 100 100 100 95 97 97 96 96 96 97
39 44 53 68 60 68 56 42 36 46 70 79 94 100 97 95 98 94 96 100 99 99 99 99 98 97 97 97 97 98 97 98 100 98 97 98 97 98 99 99 99 98 98 97 97 97 98 98 97 96 97 96 95 95
50 46 65 67 76 70 52 36 42 60 94 100 100 100 100 99 99 98 99 98 98 98 98 99 98 97 97 98 97 97 99 99 98 98 99 97 98 98 97 97 98 97 96 96 96 95 96 96 96 95 94 94 89 72
58 61 60 75 73 54 42 46 53 72 95 100 100 100 98 100 97 98 98 98 98 98 98 97 97 98 98 99 98 99 99 99 98 97 97 98 97 98 96 96 96 96 95 95 94 95 94 94 94 89 74 57 30 18
48 71 81 71 49 39 44 54 58 63 94 99 99 98 99 100 100 100 100 98 98 94 97 99 98 99 100 99 99 99 98 98 96 96 96 96 96 97 95 89 81 73 65 56 46 36 30 24 22 20 19 18 18 19
51 77 69 48 40 41 49 55 61 59 84 99 98 98 98 98 100 98 97 83 93 99 98 100 100 100 99 100 99 98 97 97 96 96 96 96 93 73 45 39 37 35 32 30 30 29 27 26 28 29 30 30 30 28
68 74 56 44 41 47 48 57 60 53 53 93 99 98 97 97 97 95 94 94 97 97 99 98 98 98 98 98 98 98 96 97 98 86 69 55 48 49 51 48 43 40 41 42 41 39 36 32 27 26 26 27 28 30
78 63 55 45 41 46 49 58 55 53 50 62 98 97 97 97 97 96 96 97 97 98 99 99 98 98 96 96 97 97 93 86 75 65 60 58 57 53 55 56 53 47 41 34 31 29 28 31 34 33 27 26 27 29
79 60 43 43 46 46 55 61 54 49 56 59 87 97 97 97 97 97 93 93 99 99 98 98 99 98 98 98 97 97 96 95 92 76 80 89 74 56 45 41 39 36 36 35 37 41 43 44 31 31 35 37 40 45
70 55 46 48 46 51 61 74 70 63 60 65 78 92 97 97 97 96 96 95 97 97 96 97 97 97 97 97 98 97 96 92 80 60 52 47 43 41 40 40 43 46 48 49 51 55 57 53 43 44 54 65 69 71
71 54 49 51 56 61 77 82 87 90 82 79 72 98 98 96 96 95 96 96 99 100 99 99 98 98 96 88 76 57 44 41 39 38 37 37 36 40 48 53 57 59 59 61 67 70 71 73 75 76 77 78 78 78
59 54 60 66 72 83 89 91 94 98 93 83 77 85 94 95 93 95 97 98 98 98 98 98 97 97 86 65 55 52 51 49 47 46 45 43 40 42 50 56 62 66 71 75 78 81 81 83 85 85 83 82 81 79
67 73 74 79 83 92 96 100 100 100 93 81 70 57 49 55 86 98 98 98 98 98 99 98 92 80 75 73 68 64 62 60 58 58 56 50 44 48 53 62 66 73 81 84 86 89 92 93 92 88 85 84 80 74
79 83 80 86 88 97 98 98 81 74 74 72 64 56 73 93 98 98 98 99 98 99 97 95 95 89 82 80 81 82 80 80 79 74 68 58 52 54 64 67 72 83 88 92 96 98 99 96 90 88 87 83 63 54
90 92 85 89 86 96 99 97 92 80 81 79 80 95 99 100 100 100 100 99 98 97 96 93 92 92 91 91 88 85 82 81 80 77 74 66 57 59 67 69 82 93 95 97 98 97 94 91 92 92 84 57 62 68
91 92 92 92 79 87 99 100 98 96 93 92 93 91 95 97 99 95 96 94 95 93 93 92 91 90 89 89 90 89 84 81 83 81 76 70 61 60 70 77 92 97 98 98 97 96 96 97 96 86 59 69 71 74
93 95 91 71 65 93 100 98 100 100 100 100 98 97 99 100 100 100 100 100 100 97 96 97 100 99 94 89 86 83 80 80 81 83 81 74 66 66 77 90 99 100 100 99 98 99 99 98 85 62 73 75 76 77

GFSWCAN_700_rhum_207.txt.gz
RH
29 30 30 31 31 30 23 14 10 11 12 14 15 16 16 17 16 19 19 22 35 42 36 28 35 49 57 56 83 80 75 77 82 99 87 99 98 94 90 94 94 97 95 90 92 96 92 81 66 63 54 42 44 43
30 30 30 35 41 36 27 17 12 12 15 17 18 18 18 19 19 23 40 44 63 66 28 36 47 43 63 71 82 76 85 73 85 97 88 71 86 100 100 98 34 93 93 96 97 90 89 97 93 89 83 65 51 53
28 29 34 37 40 32 22 14 14 16 19 19 20 21 21 22 23 28 76 58 73 64 34 34 22 43 40 48 72 90 62 58 74 68 96 99 100 96 100 87 93 66 79 76 92 66 71 97 89 97 95 74 66 67
29 33 41 38 31 24 15 13 18 22 22 22 24 25 26 26 23 43 64 28 33 66 78 26 38 38 46 43 47 66 68 56 87 91 100 97 100 89 98 87 94 70 94 93 96 73 52 55 76 87 96 97 96 77
47 46 34 28 21 12 12 17 23 25 26 28 30 31 31 27 19 18 22 22 42 87 69 54 41 27 35 47 74 82 83 64 70 92 100 98 75 99 99 100 99 96 57 84 76 55 86 48 48 57 81 89 99 78
39 35 30 14 10 14 20 26 30 53 36 37 36 35 31 26 18 20 20 23 42 62 90 82 38 48 64 58 60 53 59 96 100 100 99 96 82 100 100 100 46 60 63 64 53 46 76 68 56 41 60 70 85 100
38 18 8 9 14 22 28 33 58 97 91 47 39 34 32 24 17 22 25 39 60 72 95 99 92 86 92 52 42 65 94 99 100 98 91 75 69 96 100 96 75 64 49 45 43 67 67 29 34 38 42 51 63 96
9 8 12 20 36 48 40 50 90 96 89 42 34 30 22 17 27 37 41 54 60 67 85 95 78 63 41 46 88 95 94 96 96 73 75 99 91 100 98 42 37 43 47 55 54 59 62 57 54 54 46 46 66 92
11 14 20 36 81 46 51 74 93 95 57 28 55 72 61 45 41 45 39 39 38 74 100 100 97 87 58 77 95 82 91 98 85 62 96 99 91 98 58 78 91 77 72 67 72 75 69 65 57 60 53 30 33 78
16 22 84 100 82 62 77 92 89 36 65 85 82 67 48 67 60 50 29 20 34 75 100 100 98 90 99 94 87 100 99 96 95 67 85 98 70 75 97 94 86 91 98 99 95 82 78 68 63 66 62 43 24 63
52 83 86 74 72 83 83 63 70 81 74 55 52 56 68 67 51 34 25 35 90 96 97 97 94 95 86 96 99 96 96 93 98 84 91 96 89 96 97 94 91 84 80 76 86 79 75 66 62 66 69 54 26 56
87 76 78 84 78 74 69 49 30 24 38 58 85 88 81 86 42 28 36 69 74 98 92 72 92 74 79 97 100 91 98 96 79 98 98 96 94 98 94 90 93 94 86 73 77 76 70 74 75 73 59 42 46 41
78 80 86 82 72 46 40 48 38 40 61 80 93 95 87 63 50 34 30 39 54 54 53 60 69 78 79 100 96 97 97 91 96 96 89 100 97 88 79 74 64 63 70 73 72 78 72 71 81 92 59 45 50 74
83 82 64 44 30 23 21 20 28 61 77 94 99 94 74 43 33 32 39 42 53 56 62 84 88 99 84 99 94 98 80 98 97 96 95 78 68 64 66 72 76 80 86 71 65 66 67 68 80 93 82 49 78 95
73 54 39 27 26 28 36 43 54 83 98 98 71 51 35 35 39 47 58 73 83 95 100 99 93 87 98 98 97 97 96 96 97 98 96 93 82 87 89 90 90 95 96 95 92 72 73 77 79 88 92 64 83 97
67 65 55 38 36 57 67 61 73 97 75 54 45 41 47 68 79 93 98 98 99 98 91 86 98 99 97 98 98 97 96 96 94 99 99 92 88 98 97 95 95 96 97 97 97 97 98 98 93 94 76 70 97 96
40 30 32 36 44 57 59 65 75 47 38 40 46 79 96 98 100 100 95 99 98 90 96 100 98 98 98 97 97 96 98 97 98 98 98 94 85 91 97 98 98 97 97 98 96 96 96 97 93 86 95 95 98 100
34 39 61 57 48 60 63 70 46 35 39 61 90 94 100 100 98 99 98 100 100 100 100 100 99 99 98 97 98 99 98 98 98 98 100 98 98 98 99 99 99 98 98 98 98 97 97 97 98 97 97 97 96 94
64 78 72 59 60 74 77 39 30 42 47 72 98 100 100 98 98 99 100 100 100 99 99 100 100 98 98 99 98 97 98 99 98 98 98 98 97 98 98 98 98 98 97 98 98 97 97 97 95 96 96 96 96 96
75 65 53 53 82 85 56 38 42 51 54 80 98 98 99 100 99 100 98 98 99 99 99 99 98 98 98 98 98 98 99 99 98 98 97 96 95 96 95 95 93 96 97 97 96 96 96 96 96 96 95 92 75 66
50 42 45 73 82 63 46 42 48 54 64 89 99 99 100 100 100 100 100 98 100 98 97 97 98 98 97 98 99 99 99 99 98 96 94 96 93 76 55 45 41 37 33 32 32 33 28 25 27 25 23 20 19 19
44 46 60 76 58 43 36 40 52 59 56 74 97 99 98 96 98 98 98 92 92 99 98 98 98 98 100 99 100 99 98 98 96 95 93 95 92 86 62 51 46 44 42 39 39 38 37 36 34 34 33 32 31 30
67 70 73 63 54 43 41 41 52 52 53 53 80 100 97 97 97 97 97 95 96 96 99 100 100 99 99 99 98 98 97 95 91 86 78 78 64 66 70 68 54 44 41 37 33 33 35 35 36 34 32 29 28 27
84 89 80 58 46 46 41 42 52 57 48 50 82 100 98 98 98 97 96 97 96 96 98 99 99 99 99 98 97 95 93 93 94 92 93 96 96 81 52 45 43 41 40 39 40 44 46 44 31 28 32 32 34 38
89 85 68 50 47 47 47 43 51 64 56 49 52 81 95 97 97 97 97 96 94 96 98 97 97 97 98 97 97 97 97 96 96 96 79 51 48 43 43 46 47 48 46 46 50 54 55 48 36 37 46 57 64 65
91 78 65 55 54 53 54 59 66 77 83 72 56 60 90 100 98 96 96 97 97 98 98 98 98 98 98 98 97 94 81 57 47 42 39 38 38 38 42 48 51 53 55 57 61 65 69 74 75 77 74 74 75 75
84 84 68 57 57 59 63 67 83 84 85 86 73 69 97 99 96 92 96 97 97 97 98 99 99 98 96 89 70 52 46 45 46 46 45 43 40 37 38 46 54 59 61 68 73 74 79 83 86 86 83 81 80 78
85 70 63 64 63 66 74 88 93 92 88 95 88 86 98 96 95 93 98 98 98 98 97 97 95 92 81 63 57 55 55 56 56 57 56 52 47 43 46 55 63 66 77 83 85 89 94 95 94 91 86 84 82 75
68 67 72 74 77 82 90 94 98 98 100 98 94 80 71 57 61 90 100 99 99 99 100 100 96 84 75 74 73 73 72 69 70 70 67 64 56 50 49 59 66 74 86 93 96 96 97 98 96 92 92 88 71 58
78 82 81 80 85 89 95 98 92 69 72 78 75 73 67 68 88 100 100 100 100 99 98 100 99 96 86 83 82 79 75 73 72 72 71 70 66 58 53 63 69 82 96 98 100 100 98 96 96 97 93 68 65 73
79 85 92 88 88 90 98 98 98 88 78 74 78 84 94 97 100 100 100 99 99 99 98 96 92 90 88 86 85 84 81 80 74 72 73 72 70 66 59 69 76 93 100 100 100 98 96 98 100 96 69 70 74 75
86 96 100 96 94 90 96 99 99 99 98 97 92 87 91 98 100 98 98 96 98 96 94 90 87 90 88 84 80 79 75 71 68 68 70 72 71 67 62 72 86 99 99 100 100 100 100 100 97 71 74 77 76 79
86 96 97 97 94 72 93 100 99 99 98 99 100 99 98 97 99 92 96 94 94 94 93 92 89 88 90 92 88 80 74 70 67 68 70 74 75 71 68 80 98 100 100 100 100 100 100 98 73 75 80 79 80 87

GFSWCAN_700_rhum_210.txt.gz
RH
20 22 25 28 29 31 35 38 40 36 30 18 12 12 15 18 19 22 22 27 50 67 51 35 48 37 66 72 78 96 99 84 91 83 85 82 76 77 91 92 96 97 99 96 84 81 74 62 83 96 95 95 88 86
19 25 30 30 31 35 43 40 34 30 18 10 11 16 19 22 24 30 54 54 74 88 38 33 36 38 61 68 70 80 75 71 82 93 83 87 92 96 89 89 72 95 81 85 86 79 74 91 89 83 93 88 92 92
31 35 34 36 47 46 39 38 29 14 7 10 17 20 25 74 91 86 89 56 40 32 23 26 24 45 45 40 60 79 48 48 81 79 100 99 100 100 100 94 89 96 76 78 82 60 49 34 41 82 71 80 82 93
37 46 50 51 45 43 41 25 9 6 12 19 52 52 51 39 35 30 37 29 21 26 45 23 36 29 29 41 50 51 56 68 83 90 100 100 100 93 92 84 90 76 78 85 80 42 34 32 41 34 54 79 81 87
53 55 54 48 47 37 16 8 6 12 21 38 98 61 45 40 36 58 33 32 24 38 44 46 36 30 33 57 51 48 56 53 61 76 96 100 88 99 95 98 98 59 55 91 54 28 47 38 35 37 48 60 66 61
53 53 53 47 23 9 8 18 21 28 35 80 89 94 70 42 31 29 26 26 32 49 86 80 52 55 58 58 66 71 93 97 100 100 94 85 76 100 100 99 48 50 63 74 77 68 66 57 47 40 48 44 45 50
54 43 23 10 8 8 50 32 41 40 71 84 84 87 56 34 33 39 42 51 63 78 100 99 96 90 89 68 68 86 96 98 100 99 76 80 89 100 97 96 43 75 97 97 98 98 91 69 64 62 67 39 43 50
37 18 8 9 12 24 73 98 55 59 82 87 84 60 55 74 74 59 48 56 69 72 92 98 69 60 67 76 87 73 65 83 86 86 87 89 100 98 94 78 99 100 97 97 98 97 94 88 95 83 87 76 51 44
15 10 10 14 31 78 99 76 67 90 91 73 69 79 72 50 39 50 49 45 44 91 100 98 94 92 86 82 78 61 79 79 83 98 87 99 99 95 95 98 97 98 97 94 83 81 72 84 78 81 84 73 69 63
10 12 15 57 73 68 71 82 82 82 83 84 72 33 33 57 70 61 39 28 21 28 84 94 99 94 76 78 74 87 91 100 93 74 80 94 98 100 100 98 98 95 96 96 93 75 84 88 82 70 79 74 77 69
17 34 76 73 76 87 87 78 73 58 57 53 54 54 62 70 64 41 40 28 48 63 83 99 82 83 62 82 90 91 89 90 100 84 93 100 100 100 98 98 96 94 94 95 95 94 87 83 90 83 66 67 60 61
64 82 78 80 82 81 75 61 55 56 59 74 76 70 68 73 72 49 33 36 48 68 83 54 50 60 73 99 98 92 99 98 83 99 97 98 97 91 78 69 66 62 62 63 64 64 64 74 80 92 82 76 62 62
73 77 76 78 76 57 41 26 24 31 49 56 67 85 100 94 75 56 39 33 50 59 54 52 63 85 94 100 100 97 95 81 96 97 97 94 87 68 70 70 70 71 80 79 70 63 56 60 71 81 85 82 66 69
83 79 79 70 51 45 37 36 47 67 71 80 92 100 85 61 42 37 44 52 61 70 87 93 92 99 77 91 97 96 88 98 95 92 87 94 93 88 91 88 93 94 95 96 96 79 64 58 78 84 86 84 78 81
81 82 77 74 67 55 41 41 58 74 82 92 97 80 42 36 44 62 83 94 98 99 100 97 89 77 93 98 97 98 97 96 94 97 98 98 94 96 96 97 97 97 94 94 96 95 78 71 80 84 95 90 78 81
86 82 59 39 31 34 37 41 60 68 68 85 59 40 44 75 89 100 95 97 100 99 95 93 95 100 98 99 99 97 97 97 97 98 100 98 94 97 98 97 99 99 97 98 96 96 98 99 97 90 91 90 78 83
73 44 33 37 64 71 58 53 64 66 58 38 41 59 95 96 99 100 100 100 100 100 100 100 100 99 99 99 97 97 99 98 96 99 99 98 98 98 99 99 98 98 98 97 97 96 97 97 97 97 94 85 93 92
32 33 57 80 71 57 48 59 67 46 30 42 56 89 100 98 96 98 100 100 100 100 100 100 100 99 99 98 98 99 99 97 97 100 99 98 98 98 99 99 99 99 98 98 97 98 98 98 98 97 100 100 99 96
41 76 80 71 59 56 72 61 39 36 37 50 70 99 99 100 99 97 100 99 100 99 99 99 99 99 98 99 99 99 99 97 99 99 98 97 96 95 96 97 95 97 98 97 97 97 98 98 98 98 98 98 96 96
75 53 54 49 46 72 83 51 38 41 42 58 84 98 100 100 100 91 98 98 99 98 99 99 99 99 98 99 99 99 97 99 99 98 97 96 97 96 90 85 91 94 87 75 87 91 95 97 96 95 94 92 92 93
44 40 43 40 54 80 74 48 41 42 53 57 60 96 100 100 100 98 94 96 98 99 99 99 99 99 98 99 98 99 99 99 98 97 95 96 95 97 98 97 92 71 64 66 48 43 40 37 38 36 39 37 35 35
43 49 61 62 71 67 45 36 44 45 47 43 50 80 99 100 99 98 98 98 95 99 98 99 99 98 98 99 99 99 98 97 96 95 95 96 98 97 92 73 54 46 41 42 41 40 42 41 41 40 41 39 38 39
51 62 71 79 81 59 46 42 40 42 54 48 48 71 98 100 99 97 97 96 96 96 96 97 98 98 98 98 98 97 96 97 97 97 97 96 81 55 52 49 47 48 50 48 47 49 45 34 32 32 31 31 31 33
62 72 86 94 65 52 43 39 41 44 47 58 51 56 89 97 97 98 98 97 97 96 96 97 97 99 99 98 98 98 98 98 98 96 71 49 48 46 45 47 48 48 49 50 52 58 58 41 37 42 49 55 61 63
80 91 90 86 68 52 46 42 42 50 57 67 66 55 62 83 96 98 97 97 97 95 96 96 96 97 98 99 99 99 98 91 54 45 40 39 38 36 38 43 47 51 54 62 68 68 67 68 66 69 68 66 65 65
90 100 94 72 64 61 59 54 56 60 74 79 72 61 59 79 91 95 96 98 97 97 96 96 98 99 99 100 98 86 58 45 45 45 46 45 42 39 38 39 44 52 58 64 70 74 74 76 76 77 76 71 68 68
92 95 85 82 81 74 62 62 68 75 87 90 82 71 71 82 94 94 94 98 97 97 98 99 100 100 98 94 81 58 52 52 53 56 56 53 48 42 39 42 46 54 64 73 80 84 85 89 90 86 81 74 73 70
88 86 87 84 83 74 72 77 86 91 92 91 96 91 83 96 97 97 99 100 99 98 98 98 97 96 94 80 64 61 64 67 66 64 61 58 53 48 43 43 54 62 72 81 86 90 93 96 94 87 81 79 67 52
83 90 80 76 82 84 86 89 94 98 100 100 100 100 96 85 82 71 92 100 100 100 100 100 100 96 84 76 75 76 77 72 64 59 59 58 59 57 53 49 60 70 86 92 93 93 93 92 89 88 86 68 58 66
84 84 85 89 90 91 90 97 98 98 74 72 86 91 86 76 72 75 100 100 100 100 100 100 98 97 96 89 82 80 76 71 69 65 61 62 64 65 62 56 62 75 91 94 95 93 92 91 92 93 73 62 71 74
92 85 86 92 95 95 93 93 97 99 98 89 79 73 75 83 96 100 100 100 100 100 99 97 94 92 90 87 83 80 76 76 74 70 65 61 64 68 67 60 63 79 93 94 93 92 93 93 94 83 66 74 75 79
85 90 94 98 99 97 93 92 97 97 97 99 99 96 91 90 93 94 99 97 98 98 98 96 94 87 86 85 87 88 83 78 70 65 61 58 56 58 63 62 66 89 96 96 96 95 95 96 90 68 77 77 81 89
83 86 95 97 92 88 79 82 93 93 93 96 96 98 98 97 98 91 95 97 98 99 99 98 97 95 90 87 87 89 88 80 72 66 59 55 56 62 67 66 79 96 97 97 98 97 98 95 73 80 81 82 88 94

GFSWCAN_700_rhum_213.txt.gz
RH
20 19 19 23 29 36 39 45 44 41 40 36 19 8 10 14 15 55 69 84 84 79 69 47 48 28 41 49 65 65 93 87 78 85 92 87 86 80 78 71 84 85 95 96 89 82 80 53 64 67 60 64 76 70
17 18 22 29 30 41 49 48 44 43 34 17 8 9 14 52 69 98 79 71 53 62 30 31 27 42 36 45 64 73 88 80 100 100 94 97 97 99 100 99 78 91 75 64 68 66 40 33 35 42 34 39 32 38
20 23 27 39 50 53 51 48 45 37 15 8 9 19 87 98 69 48 47 36 54 57 38 31 26 44 30 33 53 82 61 53 88 97 99 99 100 100 100 91 92 89 93 90 84 18 55 64 41 35 35 38 41 40
46 45 39 41 46 48 48 44 27 13 8 11 18 44 99 97 89 64 67 66 58 41 46 25 31 27 33 48 56 69 76 70 83 100 100 100 100 97 88 78 96 94 99 81 92 67 60 58 69 72 69 67 73 55
41 37 32 44 49 43 30 18 11 9 15 20 29 78 90 89 89 66 46 39 33 36 47 50 39 30 46 55 56 60 71 76 81 96 99 92 83 91 83 98 72 67 70 97 86 76 97 92 79 90 99 86 70 72
40 35 46 51 44 26 13 9 11 16 36 35 46 84 88 91 80 48 63 64 62 71 100 73 73 52 36 46 83 81 97 96 100 94 81 89 100 99 100 92 39 80 98 99 96 92 93 82 94 69 72 74 76 69
37 47 52 46 28 14 8 12 40 72 57 44 82 78 73 66 68 82 66 58 67 80 100 98 86 58 55 76 83 73 60 63 74 83 78 90 100 99 97 99 73 97 95 95 98 98 88 86 81 77 72 68 62 63
43 52 43 22 10 8 15 75 73 54 73 74 65 69 71 70 52 34 41 58 66 78 99 99 68 78 85 60 51 50 50 58 52 72 76 94 100 98 99 99 99 97 92 92 97 97 96 93 86 69 70 68 64 64
45 28 12 9 11 22 46 55 73 82 76 64 60 56 51 50 47 50 50 48 53 77 100 81 71 94 90 64 48 46 44 43 53 72 78 99 99 98 99 100 100 99 96 86 72 80 92 96 90 90 82 76 65 63
12 7 10 14 42 48 77 78 70 68 74 68 54 34 50 49 44 46 43 33 32 30 60 48 88 93 83 53 59 71 73 72 96 74 94 99 100 99 98 96 93 86 85 82 76 67 71 69 85 94 94 98 86 72
7 11 26 76 71 76 70 71 66 46 33 24 33 46 44 39 41 45 49 41 41 46 47 81 99 83 46 69 82 89 89 90 100 98 97 98 97 92 80 73 64 63 68 72 77 70 58 59 58 78 82 96 89 76
13 28 77 76 71 70 69 56 42 40 52 59 74 60 46 52 61 57 49 42 43 64 67 79 58 53 72 84 99 91 98 96 88 98 97 95 93 88 86 84 87 96 97 96 98 99 90 68 59 61 77 95 96 82
54 64 70 71 77 72 58 58 57 61 67 62 69 66 81 90 86 66 54 44 55 61 63 80 85 91 87 100 98 99 97 93 96 96 84 95 98 88 98 96 94 96 97 97 96 98 93 84 69 60 89 92 94 84
85 76 74 86 78 81 66 44 33 48 47 65 72 84 89 77 57 49 57 66 87 97 98 97 95 100 87 88 98 98 95 98 94 83 91 98 100 93 97 98 97 97 96 97 97 98 97 80 70 83 96 95 96 83
76 80 88 84 70 45 29 50 56 46 53 72 82 87 68 55 58 81 98 99 100 100 100 100 94 85 92 98 98 98 98 97 98 99 99 99 99 99 99 97 99 98 97 97 97 97 98 89 100 98 96 99 94 92
82 74 73 54 32 43 67 59 55 45 57 75 68 49 50 60 79 94 98 99 100 99 96 96 97 100 98 99 100 98 98 99 99 99 99 100 98 98 100 100 99 98 98 98 97 97 99 98 97 98 98 98 94 97
68 59 35 29 45 73 55 45 42 51 64 49 41 52 65 92 95 99 100 100 100 100 100 100 100 100 99 100 98 98 99 99 99 98 100 98 96 96 98 100 99 99 99 99 99 97 96 97 97 97 97 97 100 100
49 34 36 63 75 56 44 39 59 54 29 34 53 72 99 96 99 100 100 100 100 99 98 100 100 100 100 98 99 99 100 99 98 99 98 98 98 97 97 97 96 96 100 99 98 98 98 98 97 99 100 98 98 97
47 46 53 43 41 43 44 54 58 44 32 40 55 76 95 99 96 97 99 99 98 98 99 99 99 99 99 99 99 100 100 99 98 99 98 97 97 98 97 94 80 83 92 94 94 95 96 97 98 98 97 99 94 94
55 48 38 32 34 38 56 73 52 39 34 43 52 60 67 100 98 94 96 99 99 99 99 100 99 99 99 99 99 98 100 100 99 98 97 97 98 98 94 84 66 49 52 55 53 56 71 88 93 93 90 87 86 89
55 51 40 37 50 56 67 64 46 38 41 44 46 51 78 100 100 98 88 95 98 98 98 99 99 99 99 98 99 98 99 99 97 97 97 97 95 74 57 49 47 47 45 46 44 41 38 37 39 45 48 47 46 45
58 52 48 54 62 68 61 50 43 39 37 39 48 47 66 97 100 100 98 99 94 98 97 98 98 99 97 98 98 97 97 97 97 97 98 88 59 49 46 46 47 45 47 48 48 40 33 34 35 39 38 32 31 32
52 49 47 48 62 70 61 50 43 39 39 37 51 50 55 84 100 100 98 98 97 98 98 98 98 98 99 100 100 99 98 98 99 91 48 44 40 44 48 50 52 54 55 54 58 63 46 42 49 55 62 67 70 70
54 55 55 68 84 78 64 54 44 43 42 44 57 62 52 60 81 96 100 98 98 98 98 99 99 100 100 99 97 97 99 98 67 44 43 42 41 39 38 41 45 51 55 61 69 76 78 74 70 70 69 69 68 67
68 73 79 95 97 91 63 58 50 48 50 50 55 60 59 57 57 66 92 100 98 98 98 99 100 100 99 98 99 98 94 56 50 49 49 46 42 39 39 42 47 56 67 77 79 77 77 79 80 81 80 78 74 71
95 87 90 93 87 80 77 66 59 59 63 68 72 70 70 71 64 56 76 97 100 98 97 98 98 99 100 100 97 85 62 56 58 58 58 56 50 45 40 42 49 58 68 76 79 79 81 84 84 82 78 74 70 57
99 79 64 76 97 99 94 87 72 71 77 86 85 85 82 71 62 70 87 98 100 100 99 98 98 100 99 97 90 70 61 65 68 66 60 58 56 54 48 42 46 59 73 80 83 89 92 94 92 86 82 77 61 51
77 78 76 88 98 96 95 88 82 83 91 96 100 93 87 81 78 91 95 100 100 100 100 100 99 99 98 91 71 67 72 71 67 62 62 60 58 56 52 47 42 55 69 85 87 88 89 89 88 86 84 66 55 59
84 82 95 94 89 89 89 88 92 99 100 100 100 100 100 96 95 89 86 93 100 100 100 100 100 100 96 85 78 76 77 74 71 68 61 52 50 52 56 56 51 58 72 85 89 89 89 88 88 90 77 60 64 65
94 93 97 92 92 96 93 98 98 100 100 99 82 78 92 99 99 86 72 84 100 100 100 100 100 99 97 94 89 84 80 74 70 66 61 56 53 55 58 62 58 59 78 91 93 93 91 91 92 85 64 68 69 74
94 99 99 92 91 96 99 98 96 99 99 98 96 86 86 82 80 83 93 99 100 100 99 98 97 96 90 87 83 80 78 77 74 72 66 59 56 53 53 58 61 62 84 93 95 94 92 92 92 70 73 73 76 80
93 95 95 94 95 97 98 99 90 91 96 96 97 94 90 96 96 97 98 98 99 100 100 100 100 97 89 82 79 77 75 79 83 80 71 63 54 49 52 58 62 68 91 94 95 94 93 94 79 74 77 76 82 82
83 87 89 92 94 92 91 82 75 80 85 88 91 96 96 95 98 94 96 99 100 100 100 100 99 98 94 91 88 85 84 87 88 85 73 61 56 60 65 66 65 85 96 97 97 96 96 91 75 80 79 81 88 78

GFSWCAN_700_rhum_219.txt.gz
RH
23 24 29 35 39 41 42 42 39 35 37 39 38 30 22 17 13 27 59 69 74 56 49 48 50 60 99 67 100 96 98 90 95 98 85 74 71 62 67 62 62 68 63 62 55 53 62 49 58 80 78 70 59 56
25 27 33 39 40 41 42 40 34 39 42 40 33 28 16 10 14 73 95 100 94 87 58 39 30 52 42 53 67 79 87 67 99 100 96 93 94 90 95 96 75 85 86 83 75 77 55 50 52 58 63 87 88 90
24 27 35 41 45 44 43 34 38 42 41 31 22 10 8 14 16 47 84 96 96 85 45 42 46 43 55 58 62 75 66 80 100 100 98 94 100 96 94 81 88 84 88 98 100 89 87 88 82 89 92 96 98 96
23 32 37 44 46 44 34 35 44 41 29 14 6 10 17 18 43 90 90 86 73 69 76 41 33 48 69 77 77 74 61 77 91 92 94 91 95 90 95 94 96 92 97 94 98 83 94 98 96 97 94 88 91 98
36 36 40 42 41 35 35 43 38 23 8 6 10 15 38 61 64 63 70 66 61 64 65 56 49 54 62 50 85 82 77 56 54 74 77 69 78 100 92 93 93 99 99 99 99 89 96 82 79 83 86 81 89 96
37 36 39 41 35 37 44 31 14 5 6 10 26 56 55 54 53 65 47 42 53 52 94 86 82 59 47 48 63 66 40 31 35 40 87 100 92 100 98 100 100 98 99 98 93 84 80 72 71 70 70 62 63 70
35 40 41 37 44 45 30 9 5 7 10 29 41 54 56 49 37 28 35 62 71 85 98 85 62 48 60 54 77 71 45 29 34 86 70 98 89 100 96 100 97 92 81 72 64 61 55 53 49 49 49 45 51 46
47 44 40 45 44 20 6 6 10 15 24 40 47 36 32 36 36 38 40 45 47 69 93 97 82 64 74 81 85 46 34 26 30 83 96 97 98 99 98 78 72 66 62 64 70 76 83 71 55 56 54 50 46 39
44 41 44 33 8 5 7 12 19 24 36 37 36 35 37 27 23 22 32 37 42 68 98 92 87 90 81 88 59 65 63 51 72 100 98 100 93 97 99 93 83 86 96 93 84 85 84 84 82 76 81 77 70 50
41 41 18 6 6 8 14 21 26 38 40 36 32 22 18 23 21 26 28 32 39 49 74 55 67 86 75 82 96 98 89 91 94 96 98 95 100 91 90 99 99 97 98 98 90 74 74 75 85 92 97 97 95 73
26 7 6 7 9 18 25 33 52 48 40 21 25 24 21 22 20 34 37 42 46 51 73 82 70 86 82 91 80 85 86 91 96 97 98 96 99 92 82 90 95 98 99 100 100 100 100 100 97 97 97 90 87 64
6 7 8 11 30 31 39 55 56 41 30 40 34 22 22 30 47 49 54 55 62 69 76 94 97 91 87 81 91 86 96 96 97 96 79 98 97 96 91 92 96 98 98 98 98 98 98 99 98 88 74 67 71 87
8 8 14 35 37 44 51 49 37 33 43 30 22 27 39 47 49 66 71 83 99 100 98 99 97 96 94 100 97 100 96 98 96 89 99 100 100 95 96 95 97 99 98 98 98 98 98 98 98 100 100 100 97 96
12 23 49 46 53 51 44 33 34 47 41 28 31 40 40 42 56 76 92 96 100 100 100 100 100 100 100 100 99 100 98 99 98 100 100 98 97 98 99 97 99 99 99 98 98 98 97 97 96 97 96 96 96 99
29 60 54 59 55 48 30 19 29 40 34 29 40 49 40 49 61 87 100 100 100 100 100 97 95 98 100 100 100 98 99 99 98 98 98 99 98 98 98 95 96 100 100 98 100 98 98 97 97 96 96 97 97 100
64 62 65 59 48 30 20 19 21 23 23 33 32 34 37 47 63 76 96 100 99 92 92 99 100 100 100 100 100 99 100 99 98 98 100 98 99 98 97 97 84 98 100 100 100 100 99 98 97 97 98 96 96 97
60 62 61 53 40 27 20 15 19 24 36 38 36 36 43 54 60 71 99 99 95 83 93 97 100 100 100 100 100 98 96 97 100 100 100 98 98 94 80 85 73 74 86 99 100 100 100 99 99 96 96 98 98 98
74 70 66 53 43 31 19 20 27 40 40 30 31 36 46 51 65 97 95 100 97 96 100 100 98 96 98 99 98 97 99 99 98 99 99 99 98 86 70 68 66 58 48 51 73 95 98 99 98 98 99 98 98 98
80 76 69 57 42 34 25 22 31 44 29 27 30 36 44 51 75 91 92 100 98 99 100 100 98 96 97 96 98 99 99 100 100 99 98 98 80 70 70 72 74 69 48 45 45 46 53 84 95 96 97 97 96 96
81 78 67 59 45 40 40 38 37 44 30 30 30 32 46 55 87 92 89 98 97 99 100 99 97 97 98 98 98 99 100 100 100 99 94 70 59 57 63 72 74 77 68 52 57 56 55 50 49 51 51 50 46 47
87 81 73 57 47 43 41 36 42 49 51 47 32 32 40 46 68 90 91 98 96 97 97 97 97 97 97 98 99 100 100 100 96 68 48 47 46 52 57 68 81 88 90 80 68 75 81 76 77 81 78 75 75 70
88 82 69 56 48 44 39 37 43 52 66 56 35 32 32 45 47 74 86 92 99 96 95 96 97 98 100 100 100 100 100 98 85 54 48 47 47 50 51 59 70 78 83 87 88 83 83 83 79 78 73 66 61 54
87 78 64 52 44 47 56 64 68 69 74 58 43 40 35 43 48 47 62 87 94 99 97 97 98 99 99 98 98 99 98 88 59 52 49 46 43 43 50 62 73 82 86 86 85 86 88 85 79 71 59 49 50 54
87 72 57 60 56 58 62 76 90 91 83 68 60 54 45 40 52 50 47 53 93 97 98 99 97 96 97 98 98 97 93 76 59 58 53 53 52 48 44 48 64 76 84 90 97 96 93 87 82 73 58 56 58 56
84 70 67 64 66 63 79 83 87 88 80 73 69 61 58 60 65 57 42 53 87 98 98 99 99 99 98 98 98 95 84 69 66 61 55 53 50 50 49 49 57 78 89 94 99 97 94 91 86 73 59 55 55 59
86 85 75 67 69 75 91 90 92 98 98 98 89 77 74 80 75 60 48 58 78 97 98 99 100 100 100 99 97 94 81 72 67 60 58 56 56 57 58 56 54 65 84 94 96 94 95 94 89 73 63 66 72 78
92 87 77 71 78 86 88 86 92 99 100 99 88 85 93 92 76 66 64 63 63 83 98 99 100 100 100 99 99 94 75 75 70 67 66 61 56 54 52 53 53 53 73 92 93 92 94 95 92 76 69 71 77 77
69 68 76 92 90 89 93 92 94 100 96 94 96 97 95 92 80 83 86 81 77 71 85 98 99 100 100 98 97 85 80 80 78 75 71 66 60 55 51 46 46 52 55 80 92 93 92 95 93 76 71 74 80 70
67 70 83 90 100 100 100 96 94 94 100 100 100 99 98 97 100 100 100 96 95 88 87 98 99 99 99 99 98 97 88 82 81 75 72 68 66 63 58 52 46 49 56 75 95 97 96 97 92 74 74 76 82 64
84 88 97 98 99 100 98 100 96 100 100 100 100 99 98 100 100 99 97 93 97 98 98 100 100 100 99 99 100 99 94 87 81 77 74 77 78 74 67 58 50 48 56 68 95 98 98 97 89 74 77 83 87 61
100 100 100 98 94 94 98 96 93 95 95 98 100 100 99 98 98 92 88 89 97 99 100 100 100 100 99 99 99 97 92 86 79 77 76 78 81 80 72 63 51 52 59 74 97 99 99 98 84 77 80 86 86 60
87 94 99 93 88 90 92 90 92 88 87 85 88 97 99 99 99 97 97 96 96 96 99 100 99 99 98 98 100 98 91 88 87 85 84 85 85 81 74 63 51 58 63 86 99 99 99 97 80 82 82 91 87 61
85 89 90 90 84 80 87 87 78 69 60 59 64 76 82 92 99 99 98 98 98 99 100 100 100 100 100 100 100 99 96 93 89 85 85 86 86 83 76 60 55 63 71 97 99 99 98 95 83 84 86 94 85 62

GFSWCAN_700_rhum_222.txt.gz
RH
19 21 23 26 34 39 44 44 44 40 36 39 38 37 29 12 6 8 21 64 87 86 71 97 80 58 58 71 74 61 85 84 84 91 97 82 76 78 75 67 79 74 79 80 73 71 72 43 53 72 76 70 59 56
17 21 22 28 38 43 44 45 41 38 38 40 36 21 6 5 8 9 20 76 97 100 82 90 53 56 59 65 72 88 80 65 99 100 94 96 97 93 83 98 70 84 76 88 100 93 63 51 55 53 49 70 67 75
16 20 24 38 41 43 42 43 39 38 40 34 16 4 5 7 15 37 79 94 93 84 61 43 53 46 72 81 69 74 58 75 83 84 100 97 98 94 97 95 94 88 82 96 97 61 60 75 79 85 95 91 90 80
18 22 38 43 42 41 44 39 39 41 33 10 4 6 9 20 28 76 65 70 76 73 62 46 49 58 73 85 70 58 60 77 55 50 93 95 85 82 85 94 98 98 99 99 96 92 98 97 90 90 91 83 74 72
26 42 45 40 41 45 40 42 42 28 6 4 6 12 18 33 42 44 53 52 37 66 81 72 56 58 59 53 62 70 62 64 50 43 85 97 95 100 84 93 99 98 99 98 97 88 82 70 66 64 66 59 55 55
46 43 38 43 48 42 42 40 15 4 5 7 11 21 36 44 37 32 34 38 50 95 100 83 57 48 59 68 71 74 88 67 65 70 58 82 87 100 96 99 98 96 82 79 80 74 72 64 62 71 68 62 58 55
40 42 48 50 42 42 32 8 4 5 7 11 19 27 31 32 38 40 39 61 60 61 68 79 64 69 64 67 72 73 46 35 43 56 38 96 96 99 100 95 77 75 77 79 79 81 76 81 72 78 76 71 70 61
46 51 49 42 41 25 6 5 6 8 11 18 24 25 21 18 19 24 28 28 37 65 98 99 76 76 74 86 65 50 48 51 73 99 96 99 98 88 83 78 79 80 81 85 85 92 97 92 89 80 80 82 74 67
50 44 42 37 17 5 5 6 8 13 20 26 24 13 13 12 16 19 25 31 32 56 74 90 89 87 90 72 63 53 55 90 95 98 98 98 90 93 100 98 90 94 99 97 81 88 91 95 91 97 96 93 85 82
44 40 26 8 5 6 7 11 16 23 27 23 14 12 10 19 19 21 32 33 40 42 51 68 88 76 90 77 67 61 91 87 96 97 98 96 100 100 100 100 98 96 96 97 90 80 86 91 98 98 98 98 97 97
24 10 6 6 7 8 13 16 25 29 27 17 15 11 17 16 17 32 43 50 49 58 80 76 87 96 84 80 69 86 91 93 99 99 88 92 95 98 94 98 98 96 99 99 100 100 99 99 98 98 99 97 90 85
9 8 8 7 8 16 24 29 34 32 20 26 21 14 17 22 34 41 56 66 76 86 93 98 96 96 91 82 91 89 96 99 98 94 80 99 97 98 96 96 97 96 98 99 98 98 98 98 98 97 98 98 97 97
9 8 9 10 18 27 34 38 37 21 21 22 17 24 25 32 35 59 74 88 99 99 98 100 100 100 98 100 86 98 100 99 96 91 96 98 100 100 96 92 95 98 98 100 100 99 98 99 99 98 98 97 99 98
10 9 12 24 33 40 41 38 24 18 19 21 23 30 21 30 41 63 74 92 97 100 100 100 94 100 100 99 100 99 98 100 95 97 99 100 98 99 99 99 97 97 98 99 99 100 100 98 99 100 98 97 98 97
11 16 35 46 47 48 41 30 20 16 18 21 26 30 29 37 47 56 66 77 99 100 80 85 94 96 100 99 100 100 100 98 99 100 100 99 100 100 96 95 92 96 96 100 99 100 100 100 100 99 97 97 97 98
22 41 51 56 53 49 39 25 15 17 17 24 30 27 29 35 46 57 72 99 95 91 85 87 96 99 100 100 100 98 98 97 100 99 100 99 99 98 92 87 82 76 80 94 100 100 100 99 97 99 99 97 98 99
52 58 63 62 60 50 39 27 17 20 28 36 36 30 33 41 48 52 90 98 96 95 92 90 91 100 100 100 99 99 99 98 100 100 100 99 92 77 77 81 82 62 51 55 87 99 100 100 99 99 94 97 99 98
81 80 73 72 65 54 40 26 19 27 32 32 28 28 33 39 50 70 95 96 96 96 97 96 99 98 97 96 98 100 98 98 98 99 99 90 67 70 74 80 86 75 56 59 60 91 96 98 98 96 99 98 99 98
96 85 79 76 67 57 41 31 27 35 33 29 27 30 29 37 50 80 95 91 94 98 98 94 97 98 98 98 99 99 100 100 100 98 75 56 57 65 75 84 91 93 73 69 74 75 80 93 96 97 97 98 97 97
94 87 80 77 72 58 46 40 36 32 36 49 41 36 28 32 44 56 89 89 90 96 95 97 98 98 98 100 98 98 100 100 99 61 50 51 53 60 71 82 89 95 98 97 97 100 99 97 91 89 87 88 83 75
93 92 85 79 72 60 51 44 39 39 43 46 49 52 32 28 39 45 63 86 87 94 97 98 99 100 100 100 100 99 100 100 83 60 47 46 47 56 71 88 96 94 95 94 92 89 85 77 72 64 60 56 55 55
87 85 77 72 66 59 41 40 64 72 72 69 63 50 35 30 32 42 40 69 89 90 96 98 98 98 99 98 98 100 99 98 66 52 50 49 49 50 56 71 86 95 100 96 92 90 86 79 63 57 61 61 63 67
86 84 77 67 60 42 48 58 65 79 89 81 69 63 49 40 35 40 44 46 73 95 95 98 98 98 98 98 98 98 99 92 63 59 57 54 50 46 48 62 82 88 93 95 97 97 90 83 68 61 64 67 72 67
94 84 78 66 49 55 59 62 79 90 90 92 80 69 58 49 47 45 42 46 60 95 99 98 98 98 98 99 98 98 97 85 65 62 55 53 52 52 48 47 55 75 86 89 94 95 92 88 73 65 65 70 71 51
96 85 74 65 62 60 67 69 80 84 89 92 89 80 76 66 66 53 40 50 50 74 99 100 99 98 98 98 99 99 96 78 67 59 54 49 45 42 43 46 49 60 83 91 96 95 92 89 76 63 64 71 70 46
97 88 80 73 69 79 84 84 93 88 90 96 94 90 87 88 75 65 59 62 54 64 94 99 98 98 98 99 99 99 95 79 71 66 63 56 51 48 46 44 45 49 64 86 91 89 87 87 80 66 67 74 67 47
95 88 79 79 86 86 85 85 89 91 95 95 87 93 94 90 83 74 73 72 68 68 61 77 99 99 99 98 98 99 92 78 76 73 71 63 57 55 53 49 45 44 50 75 90 89 88 89 83 68 69 75 67 48
62 61 61 75 88 93 97 96 99 96 92 90 97 100 99 94 88 91 92 87 89 82 80 69 81 99 100 99 98 98 93 82 77 76 72 66 65 65 62 56 50 44 45 54 85 91 90 90 84 70 73 80 69 51
55 59 73 84 94 100 97 100 99 95 95 98 100 100 100 98 100 100 97 93 93 89 81 83 80 98 100 100 100 100 99 96 86 84 75 71 68 67 68 63 57 48 45 52 81 93 92 92 85 73 76 84 73 56
76 85 96 100 99 97 95 100 99 100 98 99 98 98 97 100 100 96 96 94 91 95 94 90 90 99 100 100 100 100 100 98 91 81 74 68 67 72 74 70 65 54 52 61 87 96 94 94 86 76 79 88 77 56
91 95 98 95 92 95 99 97 93 90 87 88 91 91 93 97 98 99 98 96 96 93 95 97 98 100 100 100 100 99 98 97 88 79 76 74 75 77 79 77 70 54 56 63 90 97 96 96 83 78 81 90 74 57
79 81 86 90 92 90 88 87 85 77 72 70 69 68 70 76 90 93 98 97 97 99 99 100 100 100 100 100 100 100 100 98 89 85 82 79 80 81 81 75 70 56 62 68 95 98 98 96 83 82 85 94 77 60
78 81 85 84 79 79 78 77 72 63 53 52 50 47 51 64 72 82 96 100 99 99 100 100 100 100 100 100 100 100 100 99 95 90 86 83 83 84 82 79 72 59 63 75 96 98 98 97 86 86 88 96 83 63

GFSWCAN_700_rhum_228.txt.gz
RH
54 55 19 15 12 18 30 39 39 40 38 35 27 10 9 9 8 7 12 10 16 16 37 54 62 80 76 85 94 94 91 98 94 84 89 86 92 96 84 88 88 97 98 92 93 87 85 76 72 95 91 74 91 73
40 20 17 12 15 26 40 40 40 41 36 28 10 9 9 7 7 6 9 13 15 21 23 32 64 74 79 67 92 79 94 86 100 97 94 78 68 76 83 100 83 96 99 100 100 92 95 98 86 90 84 76 72 76
24 26 13 12 24 40 42 41 42 39 30 11 9 10 8 7 7 8 12 13 18 18 20 46 62 59 54 99 86 75 69 96 94 99 96 81 90 87 90 83 100 99 91 91 90 70 65 62 69 71 68 65 63 61
40 15 10 20 39 42 41 43 41 32 11 10 10 9 8 7 8 10 9 11 20 24 43 20 23 38 62 75 74 64 78 74 62 73 85 79 64 69 81 92 100 99 92 90 74 75 78 73 86 93 82 83 81 79
23 10 17 37 42 42 43 41 31 12 10 10 10 8 8 8 9 8 7 11 18 35 35 19 35 40 71 77 71 79 80 69 62 61 64 59 48 66 83 100 99 97 97 99 99 100 100 98 99 100 93 94 98 96
10 19 37 42 43 44 41 29 13 12 11 10 9 8 8 9 8 6 9 13 21 27 37 31 46 52 64 78 77 58 49 42 45 45 46 52 72 100 100 98 99 99 100 100 100 100 97 100 100 100 100 99 98 98
26 40 43 44 45 40 26 14 13 13 11 10 9 9 10 8 6 8 13 18 24 25 32 34 53 60 78 81 53 49 47 56 73 80 73 100 99 99 98 91 83 87 96 96 97 97 90 97 97 98 97 99 99 99
42 45 46 46 38 23 15 15 14 13 12 10 8 11 9 6 7 8 13 20 32 36 38 49 59 66 68 78 68 59 74 92 97 99 100 98 97 94 91 93 94 97 91 90 98 98 98 98 99 99 99 98 99 98
47 48 44 33 20 17 17 15 15 13 11 9 12 11 7 7 7 12 20 30 36 43 48 61 79 90 89 87 76 58 94 96 97 99 95 86 79 96 100 92 94 96 99 97 96 96 95 98 100 100 100 98 98 98
47 39 26 20 20 18 18 17 14 12 10 12 14 10 7 8 11 18 27 34 47 52 63 74 88 100 100 90 78 78 90 93 94 99 98 92 99 100 100 100 100 100 100 100 91 85 87 88 93 98 100 100 100 100
32 25 23 22 21 22 19 16 13 11 14 17 14 8 8 10 14 21 31 34 53 69 78 82 100 100 87 84 83 85 92 91 93 100 97 99 91 97 100 100 100 100 100 100 100 100 100 100 100 96 95 97 99 99
28 26 26 26 24 21 17 13 13 15 19 18 13 8 11 15 21 21 25 48 60 70 86 99 96 88 80 80 85 86 93 98 100 100 96 95 99 99 100 100 99 98 95 99 98 99 100 97 98 99 99 97 98 100
30 30 28 25 22 18 14 15 20 24 25 20 10 11 16 22 22 28 46 60 66 82 96 94 81 80 90 92 82 91 97 100 100 96 97 99 100 100 95 97 100 100 87 91 100 100 100 99 100 98 98 99 100 99
32 29 26 23 19 16 18 27 29 27 25 16 12 17 16 21 29 38 49 57 75 97 93 90 85 84 89 87 93 96 100 100 96 93 94 98 99 78 83 97 99 96 95 97 99 99 99 99 99 100 100 98 100 99
30 26 23 19 19 22 30 34 32 32 28 13 16 23 24 30 29 37 50 68 96 89 88 90 78 83 88 96 96 96 99 100 100 99 99 99 86 73 83 95 99 98 96 98 98 99 100 99 100 100 99 99 100 100
26 23 22 21 27 35 38 38 38 35 25 15 23 29 29 26 30 37 45 60 89 88 88 88 83 84 87 93 94 98 99 98 99 98 99 80 68 76 86 97 99 98 98 99 99 98 100 98 99 99 99 100 99 99
24 25 25 36 40 39 43 45 40 32 19 27 35 40 34 29 32 31 40 60 86 88 92 95 92 89 95 92 97 98 97 98 100 99 70 60 66 72 89 100 100 100 99 100 100 100 100 100 100 100 98 98 99 98
27 32 40 45 45 44 47 45 44 41 40 36 39 46 41 41 37 30 36 44 75 88 92 100 98 98 97 98 98 98 99 97 92 67 58 59 68 78 92 98 100 100 98 99 97 84 74 75 77 91 96 90 95 98
35 42 53 54 51 52 46 46 46 46 40 36 40 40 50 50 49 34 32 39 62 91 90 93 97 97 98 98 98 100 100 100 93 63 55 53 58 78 92 98 100 100 100 100 93 72 67 72 73 79 66 54 54 53
48 60 61 57 59 54 50 49 47 42 42 45 50 53 52 52 52 34 29 40 56 91 95 97 98 98 98 99 98 99 100 100 76 60 59 57 55 61 84 94 97 99 100 100 98 80 74 75 75 64 50 52 54 51
58 61 65 62 59 51 44 50 42 48 49 51 68 64 59 56 46 36 32 38 41 87 96 97 96 98 99 99 99 99 99 98 68 65 60 56 52 51 62 84 98 98 100 100 97 82 70 65 72 61 52 52 52 57
59 68 67 63 51 36 34 45 50 49 48 62 68 69 70 65 54 44 38 44 48 55 96 99 99 99 99 99 99 99 99 98 77 62 58 56 58 57 55 59 80 92 94 94 93 88 74 68 72 68 53 55 58 62
62 68 62 50 35 34 46 52 58 58 60 67 63 64 66 67 68 58 54 54 62 56 76 100 100 100 100 100 99 99 99 98 82 66 58 53 50 47 47 48 52 71 90 92 91 92 84 71 74 74 54 56 59 63
58 62 63 55 56 56 52 62 64 69 72 76 76 65 66 75 70 68 64 72 66 60 76 100 100 100 100 100 100 99 99 98 89 70 62 55 52 54 52 47 44 43 61 86 89 94 93 80 72 77 63 54 57 56
64 67 63 60 58 70 68 69 78 85 90 93 85 69 76 80 81 71 79 84 76 62 72 82 98 100 100 100 100 100 100 99 96 74 72 65 58 54 53 55 52 46 46 63 89 94 94 87 75 77 72 55 56 54
64 71 66 68 82 87 91 95 94 92 91 89 85 86 83 88 83 89 93 99 97 90 82 77 76 69 94 100 100 100 100 100 98 88 78 75 69 68 66 63 58 53 47 50 76 91 90 89 75 74 76 58 54 58
67 65 61 72 77 80 83 83 88 99 90 95 78 95 95 89 84 92 91 89 87 90 88 80 84 77 58 82 99 99 100 100 99 98 89 82 76 73 70 69 67 62 54 48 60 90 94 94 80 74 81 68 56 59
61 56 70 90 81 74 85 89 99 100 92 100 99 100 100 98 98 100 100 95 91 96 97 91 85 84 76 60 78 99 99 100 100 99 96 88 81 72 68 68 69 66 58 47 54 84 94 96 87 75 80 78 57 60
54 70 85 86 89 88 93 100 100 98 100 100 100 90 82 87 99 100 100 97 93 95 98 95 94 93 86 79 68 90 100 99 99 100 100 94 80 72 68 68 70 67 62 49 53 75 93 94 89 77 80 84 60 62
60 72 78 82 85 84 83 97 89 91 94 96 89 79 80 88 90 89 87 85 82 88 94 95 97 98 97 92 84 87 100 100 100 100 100 96 81 75 73 71 70 67 64 53 51 68 90 93 92 79 83 91 62 62
61 68 71 70 61 73 75 80 79 77 76 77 78 72 65 55 53 53 54 53 60 79 96 99 98 99 100 100 98 97 100 100 100 100 100 97 88 84 80 75 73 71 67 58 53 67 89 93 94 82 84 93 66 65
48 59 63 61 61 70 74 69 68 66 63 60 55 52 52 55 59 55 50 49 60 87 98 99 97 100 100 100 100 100 100 100 100 100 100 100 95 91 87 80 77 76 69 62 52 64 90 95 96 86 86 96 71 67
46 57 63 61 60 66 70 68 61 59 57 52 51 54 57 62 64 59 55 49 51 60 91 99 99 100 100 100 100 100 100 100 100 100 100 100 100 97 92 85 81 80 74 64 54 63 90 96 97 91 88 95 79 69

GFSWCAN_700_rhum_231.txt.gz
RH
80 58 61 58 21 14 15 29 34 35 36 34 24 15 14 13 12 10 8 7 9 9 14 27 51 71 81 95 69 72 75 90 83 94 97 89 92 62 74 66 95 99 100 96 94 90 96 88 70 87 92 78 77 65
59 62 52 23 16 12 23 34 36 38 37 28 16 15 14 12 11 9 7 7 8 10 13 49 70 79 59 60 90 75 87 93 98 97 98 83 83 82 93 93 95 98 99 100 100 91 93 78 88 88 98 89 88 89
73 60 24 22 12 13 31 37 39 39 31 18 16 14 14 12 9 7 7 6 7 8 17 19 21 25 39 96 99 74 83 91 83 86 86 100 97 92 88 92 100 98 89 84 69 66 71 74 94 97 96 96 89 89
46 25 26 14 11 23 36 40 40 33 19 17 16 15 13 10 8 7 6 6 7 9 16 23 33 67 79 89 98 93 86 73 62 63 66 79 91 77 85 100 100 99 86 89 72 85 89 90 100 100 91 97 96 90
35 58 27 11 22 37 41 42 35 20 18 18 16 13 12 8 8 7 6 7 9 13 19 22 36 50 48 71 93 90 66 56 51 47 51 54 55 67 96 100 96 99 99 98 98 100 100 100 100 99 97 100 100 95
88 64 17 22 39 42 44 36 21 19 18 16 14 13 9 9 8 6 7 8 13 23 28 29 38 45 56 59 62 55 54 47 49 49 50 64 75 100 99 96 98 100 100 100 100 100 100 100 98 100 98 98 99 100
53 19 25 40 44 45 36 21 20 19 18 16 14 11 10 9 7 7 8 13 25 32 35 37 42 56 66 70 70 56 71 92 97 92 99 100 99 99 97 84 83 90 96 100 100 96 82 94 98 100 100 100 100 100
22 33 42 46 45 34 22 22 21 20 18 16 12 11 11 9 8 7 13 24 31 37 40 46 54 76 76 98 76 82 100 99 100 100 94 92 91 76 83 91 93 92 90 92 98 100 100 100 100 98 99 98 95 97
40 45 48 45 30 24 24 23 22 20 17 13 12 12 12 8 8 10 15 16 27 38 50 59 70 96 93 81 68 96 100 99 98 100 92 90 78 90 99 93 90 94 93 87 91 96 93 97 93 98 96 92 94 97
48 49 41 26 26 25 25 25 22 18 14 13 13 14 10 9 10 12 19 17 33 41 54 69 88 100 98 70 69 83 87 94 98 100 100 93 90 100 100 100 99 99 99 97 90 78 74 78 87 93 97 100 100 100
48 33 28 28 28 28 27 23 19 15 14 14 16 14 10 9 12 16 18 22 34 44 62 86 100 94 78 77 80 82 89 89 99 100 100 96 90 96 100 100 100 100 100 100 100 100 100 100 99 96 96 99 99 99
31 31 31 32 31 28 23 19 17 14 15 17 17 14 11 13 18 18 21 30 44 53 85 100 97 84 83 77 83 87 98 98 100 100 92 85 96 99 88 98 99 99 99 100 100 98 100 100 100 100 99 100 100 100
35 35 35 32 26 22 20 18 16 18 21 22 19 11 14 19 20 24 30 42 59 94 97 98 88 82 85 80 82 92 98 99 97 93 86 95 100 90 86 98 100 100 100 100 100 100 100 100 100 100 99 100 100 100
39 37 30 25 22 20 19 18 24 25 25 26 15 15 14 21 26 27 40 48 71 90 92 94 87 80 84 88 94 96 97 94 92 87 90 100 82 79 89 100 99 99 99 99 100 100 100 99 99 100 100 100 99 98
34 28 25 23 22 20 21 24 25 27 29 24 14 20 26 28 22 26 34 43 77 86 86 85 80 82 87 92 92 91 94 91 92 95 98 78 72 76 96 100 99 100 98 98 96 98 99 100 100 100 100 99 100 100
28 26 24 23 22 24 26 27 28 30 28 18 22 30 33 32 28 28 29 42 57 81 85 83 85 86 89 90 91 94 93 93 95 95 72 64 70 85 99 100 99 99 99 99 94 90 93 99 99 100 99 100 100 99
27 26 25 25 29 28 28 31 30 31 32 34 34 38 41 39 38 36 29 35 38 74 86 89 93 88 94 93 96 98 97 97 97 75 57 57 62 83 97 100 100 100 100 99 88 80 86 97 99 97 73 82 93 97
28 27 28 31 30 30 34 32 31 32 39 40 35 46 50 48 51 45 36 28 36 63 85 96 100 96 97 96 97 98 96 94 91 58 55 55 61 79 94 100 100 100 100 98 86 80 84 84 62 57 64 66 75 68
28 29 31 32 33 35 35 33 34 36 32 43 47 50 51 47 46 49 41 28 36 54 84 88 93 98 100 99 98 99 98 98 85 58 57 53 54 69 89 100 100 100 100 100 88 73 77 77 55 57 61 63 62 34
29 32 36 38 39 42 40 39 36 36 44 46 54 52 55 58 57 48 37 31 35 46 90 94 99 99 98 99 99 99 98 97 67 59 57 57 54 56 68 92 99 99 99 100 93 80 84 80 55 52 55 62 50 25
33 36 40 46 49 46 38 40 44 45 43 46 54 53 57 65 64 55 44 38 44 46 77 96 98 98 98 99 99 100 99 99 83 66 62 57 50 48 50 66 93 99 100 100 96 79 73 71 56 52 57 59 54 28
38 43 50 57 47 30 35 46 49 49 43 50 47 48 58 61 63 57 50 49 51 57 64 96 100 100 100 100 100 99 99 100 93 67 60 53 52 50 48 49 60 89 97 95 93 86 73 73 69 53 56 58 62 49
45 52 60 52 39 37 43 46 49 54 50 53 53 49 50 55 63 64 64 68 72 63 60 90 100 100 100 100 100 99 99 100 98 72 64 58 56 55 53 50 47 51 78 93 90 88 81 72 78 62 55 61 62 66
59 61 54 44 42 48 48 54 59 67 64 72 68 62 63 68 62 68 76 83 76 68 86 97 100 100 100 100 100 100 99 100 99 81 72 70 63 61 62 59 52 47 50 77 90 90 88 76 75 76 58 60 62 64
49 51 46 38 43 51 58 62 70 80 83 83 74 66 73 83 84 82 96 96 87 81 83 78 77 78 96 100 99 99 99 99 100 95 78 77 71 69 69 66 62 57 50 52 84 94 91 82 74 80 67 58 60 62
44 42 42 49 61 65 72 73 81 88 86 90 80 77 84 93 88 91 95 94 94 88 84 86 78 83 74 75 98 99 99 99 100 100 92 80 76 73 72 70 68 64 58 49 63 92 93 89 76 77 77 59 59 62
40 41 46 60 78 92 89 78 80 88 92 99 91 86 90 94 84 93 100 100 100 95 90 93 96 84 80 73 64 92 100 100 100 100 100 96 84 78 74 71 72 70 64 52 56 83 92 92 81 77 85 68 61 68
37 37 51 75 87 93 87 82 88 98 100 100 100 100 100 97 89 88 94 95 97 97 94 92 94 91 82 81 78 64 83 98 100 99 100 100 96 81 73 73 73 72 65 56 49 68 92 94 87 76 82 77 58 62
36 41 51 58 68 74 78 82 75 82 93 95 94 96 88 81 81 86 92 93 86 88 88 91 98 96 91 86 80 80 72 86 99 100 99 99 99 87 74 74 75 72 64 61 50 60 90 96 93 79 81 84 61 66
33 44 50 55 62 61 55 61 66 75 76 77 75 71 69 72 72 72 63 58 56 54 56 65 78 97 98 96 90 87 89 82 96 100 100 99 100 89 79 75 73 72 68 63 55 52 81 94 95 82 80 89 64 66
37 40 44 52 52 59 52 60 66 66 65 67 67 62 56 50 50 57 56 54 49 46 51 79 96 98 98 97 100 100 100 100 99 100 100 100 100 94 86 84 79 76 74 66 62 51 68 91 92 85 80 90 75 71
36 39 40 44 51 56 59 62 64 59 56 57 58 53 53 55 55 58 60 56 48 46 48 65 95 98 96 99 100 100 100 100 100 100 100 100 100 99 95 91 84 78 78 72 66 53 60 89 92 90 84 90 90 72
36 38 39 42 46 51 59 62 57 52 49 54 52 54 59 58 59 61 58 54 53 54 58 60 79 100 100 100 100 100 100 100 100 100 100 100 100 97 98 97 88 82 79 78 69 57 57 85 93 93 88 88 95 74

GFSWCAN_700_rhum_234.txt.gz
RH
98 98 95 67 57 56 20 12 24 30 34 34 24 18 16 14 11 11 9 8 7 6 11 16 47 60 68 55 64 96 68 86 83 95 99 92 89 83 77 73 94 100 96 98 85 85 96 87 81 95 98 92 97 97
97 96 91 66 59 23 14 13 28 33 36 30 18 18 14 12 12 11 9 7 6 7 9 32 18 21 30 65 98 92 83 81 82 83 83 87 95 92 94 86 90 97 99 100 100 94 90 99 100 100 100 99 100 100
96 95 80 69 31 19 11 24 33 37 36 20 19 17 12 13 12 10 8 7 6 7 20 18 21 34 55 82 92 95 86 84 75 64 64 83 84 88 96 94 100 99 97 92 78 75 76 95 97 99 100 99 99 100
96 94 81 43 20 13 19 34 38 39 24 19 19 14 14 14 11 9 8 7 7 7 16 27 29 55 53 88 100 100 94 85 67 58 55 52 63 68 87 100 100 100 92 87 67 86 79 85 98 100 94 100 100 100
96 76 51 56 41 17 33 40 41 29 20 20 17 16 16 13 11 9 8 8 8 12 22 28 38 52 59 75 81 96 71 58 56 55 55 56 58 78 99 100 100 99 100 98 92 100 100 100 100 97 99 99 100 100
81 60 73 82 22 31 41 43 32 22 21 19 18 18 15 12 11 9 8 9 12 22 29 33 43 52 70 76 74 80 57 62 68 60 66 68 88 100 100 98 100 100 100 100 98 96 100 100 100 100 96 97 99 100
80 89 85 23 36 43 44 32 23 23 21 20 20 16 13 12 11 9 9 12 16 25 35 41 43 56 73 69 68 72 92 96 97 98 98 98 98 100 100 86 88 90 98 100 100 94 79 92 88 92 97 100 100 100
95 50 25 40 45 45 30 24 24 24 23 20 16 14 12 12 10 9 9 12 17 30 41 47 61 80 76 74 76 95 95 96 99 89 82 75 73 76 85 98 93 91 88 93 99 100 100 100 100 100 100 96 90 94
29 32 43 47 44 28 26 26 26 25 19 17 15 14 13 12 10 9 10 11 20 30 45 60 80 96 75 63 90 95 97 100 97 96 95 88 84 94 100 97 90 93 94 85 89 98 100 99 97 99 98 91 87 88
41 48 49 40 28 28 28 28 25 19 18 16 14 14 14 12 10 10 15 13 21 29 46 70 96 96 71 63 82 86 90 96 98 100 100 97 88 97 100 94 99 100 100 95 84 76 78 85 92 91 94 100 100 100
50 48 32 29 30 31 31 25 19 18 17 15 14 15 16 11 11 14 15 17 27 35 63 91 99 82 74 71 73 78 89 96 100 100 100 98 90 98 84 91 100 100 100 100 100 100 100 99 98 95 97 100 100 100
40 31 32 34 34 31 24 21 19 17 16 15 16 18 12 12 16 15 16 26 46 60 85 94 87 80 79 77 80 89 97 95 92 95 98 94 100 90 77 93 96 99 100 100 100 100 100 100 100 100 100 100 100 100
34 36 37 36 30 24 22 20 18 16 16 18 22 14 13 16 16 16 28 38 44 74 87 86 85 78 80 78 84 95 96 93 91 91 86 94 98 78 81 94 100 100 100 100 100 100 100 100 100 100 100 100 100 100
40 40 34 28 24 22 20 18 18 18 20 25 21 15 14 20 18 22 24 30 42 62 79 81 84 76 86 90 96 98 93 91 86 83 89 96 66 75 88 97 100 99 99 100 100 100 100 100 100 100 100 100 100 100
38 32 27 25 22 20 19 18 19 23 26 25 17 19 27 29 24 22 23 23 32 35 72 78 82 79 84 89 89 87 88 88 86 95 95 67 63 78 91 100 99 98 100 99 91 90 98 98 98 97 99 99 100 100
31 28 25 23 21 20 20 22 25 25 24 22 26 34 34 34 34 30 29 25 28 32 71 81 89 86 90 88 89 92 91 92 97 94 65 59 67 81 95 100 99 98 100 98 85 88 93 82 86 79 86 88 85 86
27 23 22 21 21 22 25 27 26 24 31 38 37 34 38 40 44 44 40 34 25 34 69 87 89 90 95 96 96 95 96 98 100 72 57 56 61 76 97 99 99 100 100 99 82 91 84 74 76 80 74 40 30 28
24 23 20 20 23 27 29 27 24 25 33 31 34 34 34 36 38 46 41 40 27 35 58 91 94 94 97 98 97 98 98 96 88 57 57 58 57 60 88 98 99 100 100 94 81 91 80 70 73 71 56 27 29 30
21 18 19 25 29 30 29 28 22 22 28 33 29 36 44 49 49 49 50 39 32 37 51 87 92 97 98 98 98 99 98 97 74 62 58 55 50 52 67 88 96 100 100 99 84 79 76 65 68 67 53 28 28 31
14 19 28 31 31 33 29 24 21 28 32 33 36 41 49 56 61 61 54 46 39 41 53 95 99 99 98 98 98 98 98 97 77 58 53 51 49 48 50 62 86 95 95 98 92 85 87 72 68 63 64 35 31 36
20 26 30 30 34 33 19 25 31 34 37 39 42 40 49 59 64 61 58 50 52 51 55 78 99 99 99 99 98 99 99 98 95 64 59 54 52 50 47 46 54 81 96 98 97 84 80 72 58 62 68 66 36 31
19 25 29 32 33 23 24 30 40 47 45 44 46 46 45 47 52 56 62 66 65 68 64 58 92 100 100 100 99 99 99 99 99 75 63 55 54 57 56 53 48 56 83 92 96 89 80 79 65 60 64 67 70 45
21 23 28 30 29 30 34 43 48 51 56 57 58 54 53 50 60 58 63 74 78 72 76 89 99 100 100 100 100 99 99 99 99 93 71 65 59 62 63 59 55 51 53 79 91 91 83 79 80 62 60 65 72 74
20 25 28 30 33 40 47 50 56 62 64 74 72 68 58 74 71 71 86 94 84 78 80 77 75 82 94 100 99 99 99 99 99 100 87 78 72 67 68 66 63 59 51 56 85 91 89 80 82 77 62 66 72 76
26 25 29 32 40 50 52 54 56 62 70 75 75 73 75 65 76 77 92 94 96 92 85 84 83 78 80 80 95 99 100 100 100 100 100 93 81 74 74 70 68 65 57 48 63 90 94 86 77 83 68 62 67 72
28 32 36 45 56 66 82 80 76 77 75 81 90 92 84 75 79 88 92 95 91 86 88 87 87 91 86 85 74 79 97 99 100 100 100 100 96 81 74 68 70 70 63 53 54 83 95 92 80 81 81 59 60 68
34 37 41 55 65 76 86 66 68 72 83 95 99 100 100 88 87 96 100 100 92 87 87 92 93 89 90 85 79 76 67 88 98 98 98 100 100 95 82 73 70 71 66 61 52 71 94 94 86 81 89 69 64 76
35 36 39 39 46 54 59 63 63 65 72 85 98 98 100 86 81 86 83 74 77 83 84 82 86 88 89 91 89 81 77 71 80 98 99 99 99 100 94 77 76 76 72 65 55 54 85 93 90 80 87 80 68 82
30 27 28 36 44 48 49 43 47 62 70 74 78 81 70 68 70 70 69 68 61 58 57 56 54 57 68 82 88 89 88 82 77 80 97 99 100 100 98 81 77 75 73 68 63 51 67 91 91 83 84 89 69 82
24 27 30 35 42 48 46 43 45 58 64 68 67 62 58 62 59 59 54 55 56 56 52 48 44 52 66 84 92 93 91 91 92 89 89 99 100 100 100 88 82 76 72 72 67 59 54 85 94 90 84 94 74 76
26 31 32 34 34 41 46 48 45 50 57 58 57 54 53 50 48 52 51 53 56 53 48 44 44 54 88 99 100 96 96 100 100 100 100 100 100 100 100 96 88 82 76 75 74 66 52 69 92 94 86 90 83 74
30 34 35 35 36 39 41 43 46 46 46 45 47 52 53 54 55 55 56 54 52 50 49 49 52 56 68 96 97 96 100 100 100 100 100 100 100 100 100 100 99 93 84 80 80 71 57 55 85 94 93 88 95 76
37 40 41 42 42 45 49 52 54 52 48 44 44 49 54 59 63 61 60 58 56 53 52 57 59 70 73 92 99 100 100 100 100 100 100 100 100 99 100 100 99 97 91 85 84 80 66 55 73 93 96 92 95 87